Stations météo

réclame
Mon MeteoGroup
Rostherne No 2, Grande-Bretagne (3351): Température de l'air & dewpoint: 23.09.2020 22:00:00 - 29.09.2020 22:00:00 (BST)Rostherne No 2, Grande-Bretagne (3351): Vitesse du vent & gusts: 23.09.2020 22:00:00 - 29.09.2020 22:00:00 (BST)Rostherne No 2, Grande-Bretagne (3351): Direction du vent: 23.09.2020 22:00:00 - 29.09.2020 22:00:00 (BST)Rostherne No 2, Grande-Bretagne (3351): reduced air pressure: 23.09.2020 22:00:00 - 29.09.2020 22:00:00 (BST)Rostherne No 2, Grande-Bretagne (3351): visibility: 23.09.2020 22:00:00 - 29.09.2020 22:00:00 (BST)Rostherne No 2, Grande-Bretagne (3351): Ensoleillement: 23.09.2020 22:00:00 - 29.09.2020 22:00:00 (BST)Rostherne No 2, Grande-Bretagne (3351): Quantités de précipitations: 23.09.2020 22:00:00 - 29.09.2020 22:00:00 (BST)
Date & Time tt [°C] td [°C] ff [km/h] ff [knt] fx [km/h] fx [knt] dd ppp [hPa] vv [km] sd [min] rr [mm]
29.09.2020 22:00:00 - - - - - - - - - - -
29.09.2020 21:00:00 10,4 9,4 2 1 - - SE 1013,5 23 0 0,0
29.09.2020 20:00:00 11,0 9,1 4 2 - - SE 1013,9 23 0 0,0
29.09.2020 19:00:00 12,6 9,8 2 1 - - SSE 1014,3 35 0 0,0
29.09.2020 18:00:00 13,8 9,6 5 3 - - SSE 1014,4 30 0 0,0
29.09.2020 17:00:00 15,2 7,5 2 1 - - SE 1014,6 40 18 0,0
29.09.2020 16:00:00 15,9 7,9 2 1 - - W 1015,1 35 0 0,0
29.09.2020 15:00:00 14,9 8,5 4 2 - - N 1015,6 29 6 0,0
29.09.2020 14:00:00 15,4 7,6 4 2 - - NNE 1016,1 35 60 0,0
29.09.2020 13:00:00 15,0 9,5 4 2 - - NNW 1016,5 35 60 0,0
29.09.2020 12:00:00 13,3 12,6 4 2 - - NW 1016,8 15 12 0,0
29.09.2020 11:00:00 10,6 10,6 2 1 - - NE 1017,1 2,4 0 0,0
29.09.2020 10:00:00 9,5 9,5 2 1 - - SE 1017,2 0,3 0 0,0
29.09.2020 09:00:00 8,2 8,2 2 1 - - SE 1017,0 0,1 0 0,2
29.09.2020 08:00:00 8,0 8,0 0 0 - - N 1016,5 0,1 0 0,0
29.09.2020 07:00:00 8,0 8,0 4 2 - - S 1016,2 0,1 0 0,0
29.09.2020 06:00:00 8,9 8,9 4 2 - - SSE 1015,8 0,1 0 0,0
29.09.2020 05:00:00 9,4 9,4 4 2 - - WNW 1015,4 0,1 0 0,0
29.09.2020 04:00:00 10,2 10,2 5 3 - - NNW 1015,3 0,6 0 0,0
29.09.2020 03:00:00 10,7 10,7 5 3 - - NNW 1015,3 1,4 0 0,0
29.09.2020 02:00:00 10,8 10,7 9 5 - - NW 1015,0 2,4 0 0,0
29.09.2020 01:00:00 11,0 10,7 9 5 - - NW 1014,6 2,1 - 0,0
29.09.2020 00:00:00 12,8 12,6 8 4 - - NW 1014,4 4,0 0 0,0
28.09.2020 23:00:00 12,9 12,7 5 3 - - NW 1014,3 6 0 0,0
28.09.2020 22:00:00 13,6 13,4 8 4 - - WNW 1014,0 7 0 0,0
28.09.2020 21:00:00 13,9 13,6 8 4 - - NW 1013,4 2,7 0 0,0
28.09.2020 20:00:00 13,9 13,4 4 2 - - WNW 1013,0 2,1 0 0,4
28.09.2020 19:00:00 14,3 13,1 4 2 - - NW 1012,5 2,4 0 0,0
28.09.2020 18:00:00 15,7 12,8 0 0 - - N 1011,8 11 0 0,0
28.09.2020 17:00:00 16,2 12,2 4 2 - - S 1011,5 28 6 0,0
28.09.2020 16:00:00 16,8 11,9 8 4 - - S 1011,5 45 24 0,0
28.09.2020 15:00:00 15,6 10,1 5 3 - - SSE 1011,7 35 54 0,0
28.09.2020 14:00:00 14,8 10,0 8 4 - - SSE 1012,3 40 30 0,0
28.09.2020 13:00:00 12,2 8,5 5 3 - - S 1012,9 35 0 0,0
28.09.2020 12:00:00 10,7 8,2 5 3 - - SE 1013,0 18 0 0,0
28.09.2020 11:00:00 8,5 8,3 5 3 - - SE 1013,1 18 0 0,0
28.09.2020 10:00:00 6,8 6,8 8 4 - - SSE 1013,3 5 0 0,0
28.09.2020 09:00:00 4,0 4,0 5 3 - - ESE 1013,4 7 0 0,0
28.09.2020 08:00:00 1,2 1,2 5 3 - - SE 1013,3 7 0 0,0
28.09.2020 07:00:00 -0,1 -0,1 5 3 - - ESE 1013,3 4,4 0 0,0
28.09.2020 06:00:00 0,1 0,1 4 2 - - ESE 1013,7 5 0 0,0
28.09.2020 05:00:00 0,4 0,4 4 2 - - SSE 1013,7 0,5 0 0,0
28.09.2020 04:00:00 0,2 0,1 5 3 - - ESE 1014,4 0,6 0 0,0
28.09.2020 03:00:00 0,8 0,7 2 1 - - ESE 1015,1 1,9 0 0,0
28.09.2020 02:00:00 1,5 1,4 5 3 - - SE 1015,3 6 0 0,0
28.09.2020 01:00:00 1,3 1,1 5 3 - - SE 1015,7 6 - 0,0
28.09.2020 00:00:00 1,9 1,5 4 2 - - ESE 1015,7 16 0 0,0
27.09.2020 23:00:00 3,3 2,6 2 1 - - SSW 1015,8 19 0 0,0
27.09.2020 22:00:00 4,8 3,8 4 2 - - N 1015,8 24 0 0,0
27.09.2020 21:00:00 5,8 4,4 8 4 - - NW 1015,6 29 0 0,0
27.09.2020 20:00:00 6,5 3,9 8 4 - - NW 1015,5 40 0 0,0
27.09.2020 19:00:00 8,7 3,9 9 5 - - NW 1015,5 35 18 0,0
27.09.2020 18:00:00 12,0 4,8 11 6 - - NW 1015,1 23 60 0,0
27.09.2020 17:00:00 13,6 4,5 13 7 - - NW 1015,1 23 60 0,0
27.09.2020 16:00:00 14,6 5,6 13 7 - - NW 1015,0 30 60 0,0
27.09.2020 15:00:00 14,2 5,8 15 8 - - NW 1015,4 22 60 0,0
27.09.2020 14:00:00 14,3 6,5 13 7 - - NNW 1016,0 19 60 0,0
27.09.2020 13:00:00 12,8 5,0 13 7 - - N 1016,2 25 60 0,0
27.09.2020 12:00:00 11,8 5,7 11 6 - - N 1016,3 26 60 0,0
27.09.2020 11:00:00 10,5 5,5 13 7 - - NNW 1016,7 22 60 0,0
27.09.2020 10:00:00 9,1 4,6 16 9 - - NW 1017,1 21 60 0,0
27.09.2020 09:00:00 6,8 4,4 11 6 - - NNW 1016,9 18 60 0,0
27.09.2020 08:00:00 4,0 3,2 8 4 - - NNW 1016,7 16 18 0,0
27.09.2020 07:00:00 4,4 3,1 13 7 - - NNW 1016,8 17 0 0,0
27.09.2020 06:00:00 3,5 1,7 8 4 - - NW 1016,9 18 0 0,0
27.09.2020 05:00:00 6,3 3,4 11 6 - - NNW 1016,7 18 0 0,0
27.09.2020 04:00:00 7,1 4,0 16 9 - - NNW 1017,4 22 0 0,0
27.09.2020 03:00:00 6,2 3,9 15 8 - - NNW 1017,3 17 0 0,0
27.09.2020 02:00:00 6,8 3,6 11 6 - - NNW 1017,2 17 0 0,0
27.09.2020 01:00:00 7,4 3,8 13 7 - - NNW 1017,4 18 - 0,0
27.09.2020 00:00:00 9,1 4,0 16 9 - - NNW 1017,4 20 0 0,0
26.09.2020 23:00:00 9,7 4,0 22 12 - - N 1017,4 19 0 0,0
26.09.2020 22:00:00 9,9 4,0 13 7 - - NNW 1017,5 24 0 0,0
26.09.2020 21:00:00 10,6 5,7 13 7 - - N 1017,3 21 0 0,0
26.09.2020 20:00:00 11,0 5,6 13 7 - - N 1016,9 25 0 0,0
26.09.2020 19:00:00 11,0 6,0 15 8 - - N 1016,4 28 0 0,0
26.09.2020 18:00:00 11,3 5,8 16 9 - - NNW 1016,1 40 0 0,0
26.09.2020 17:00:00 11,8 5,4 16 9 - - NNW 1016,0 29 0 0,0
26.09.2020 16:00:00 11,5 5,0 22 12 - - N 1015,5 50 0 0,0
26.09.2020 15:00:00 11,5 4,7 21 11 - - NNW 1015,0 35 0 0,0
26.09.2020 14:00:00 11,7 5,1 18 10 - - NNW 1014,9 35 18 0,0
26.09.2020 13:00:00 10,7 4,1 21 11 - - NNW 1015,1 40 0 0,0
26.09.2020 12:00:00 10,4 3,4 22 12 - - NNW 1015,0 50 48 0,0
26.09.2020 11:00:00 9,6 3,5 22 12 - - NNW 1014,7 50 60 0,0
26.09.2020 10:00:00 8,4 3,3 24 13 - - NNW 1014,3 45 60 0,0
26.09.2020 09:00:00 6,7 3,4 11 6 - - NNW 1014,2 26 60 0,0
26.09.2020 08:00:00 4,0 1,8 11 6 - - NNW 1013,6 45 24 0,0
26.09.2020 07:00:00 2,6 1,2 15 8 - - NW 1013,4 40 0 0,0
26.09.2020 06:00:00 2,9 1,1 9 5 - - NW 1013,5 50 0 0,0
26.09.2020 05:00:00 3,9 2,1 11 6 - - NNW 1013,1 45 0 0,0
26.09.2020 04:00:00 5,0 2,5 13 7 - - NNW 1013,0 40 0 0,0
26.09.2020 03:00:00 5,5 3,2 16 9 - - NW 1012,9 45 0 0,0
26.09.2020 02:00:00 5,0 3,9 9 5 - - NNW 1012,7 35 0 0,0
26.09.2020 01:00:00 3,9 2,5 9 5 - - NW 1012,6 50 - 0,0
26.09.2020 00:00:00 5,3 4,9 9 5 - - NW 1012,4 45 0 0,2
25.09.2020 23:00:00 5,1 3,7 8 4 - - NW 1012,3 45 0 0,0
25.09.2020 22:00:00 8,4 5,4 11 6 - - NNW 1012,2 50 0 0,0
25.09.2020 21:00:00 9,8 5,5 18 10 - - NNW 1011,9 50 0 0,0
25.09.2020 20:00:00 11,0 5,8 22 12 - - N 1011,2 35 0 0,0
25.09.2020 19:00:00 12,1 5,1 16 9 46 25 NNW 1009,9 45 18 0,0
25.09.2020 18:00:00 13,2 4,7 22 12 - - NNW 1009,0 50 12 0,0
25.09.2020 17:00:00 12,7 5,3 26 14 48 26 NNW 1008,8 45 0 0,0
25.09.2020 16:00:00 12,7 4,9 28 15 54 29 NNW 1008,6 45 24 0,0
25.09.2020 15:00:00 13,6 4,9 29 16 54 29 NNW 1007,9 40 60 0,0
25.09.2020 14:00:00 13,0 3,4 29 16 52 28 NNW 1007,4 40 54 0,0
25.09.2020 13:00:00 12,9 4,8 28 15 55 30 NNW 1007,1 40 48 0,0
25.09.2020 12:00:00 12,2 4,7 29 16 50 27 N 1006,3 45 42 0,0
25.09.2020 11:00:00 10,9 4,8 28 15 48 26 NNW 1006,0 35 54 0,0
25.09.2020 10:00:00 9,7 4,3 28 15 46 25 NNW 1005,2 45 60 0,0
25.09.2020 09:00:00 8,4 4,7 21 11 - - NNW 1004,3 40 60 0,0
25.09.2020 08:00:00 7,0 4,6 21 11 - - NW 1003,4 45 12 0,0
25.09.2020 07:00:00 6,5 4,1 18 10 - - NNW 1002,8 40 0 0,0
25.09.2020 06:00:00 6,1 4,2 16 9 - - NW 1001,9 35 0 0,0
25.09.2020 05:00:00 6,3 4,7 15 8 - - NNW 1001,0 45 0 0,0
25.09.2020 04:00:00 7,3 4,6 13 7 - - NNW 1000,1 50 0 0,0
25.09.2020 03:00:00 8,3 5,9 15 8 - - NNW 999,6 45 0 0,0
25.09.2020 02:00:00 8,3 6,5 15 8 - - N 998,6 50 0 0,0
25.09.2020 01:00:00 7,0 5,5 9 5 - - N 997,7 50 - 0,0
25.09.2020 00:00:00 7,6 6,1 9 5 - - N 997,2 50 0 0,0
24.09.2020 23:00:00 6,4 4,5 2 1 - - NW 996,5 45 0 0,0
24.09.2020 22:00:00 8,9 5,2 9 5 - - NE 995,7 50 0 0,0
24.09.2020 21:00:00 6,0 5,4 4 2 - - NNW 994,9 45 0 0,0
24.09.2020 20:00:00 7,4 5,2 4 2 - - NNW 994,2 50 0 0,0
24.09.2020 19:00:00 9,5 5,8 5 3 - - NW 993,6 45 12 0,0
24.09.2020 18:00:00 12,1 5,1 4 2 - - WSW 992,7 50 42 0,0
24.09.2020 17:00:00 12,5 4,7 9 5 - - SSW 992,6 50 24 0,0
24.09.2020 16:00:00 13,5 5,4 11 6 - - S 992,4 40 18 0,0
24.09.2020 15:00:00 10,8 6,3 9 5 - - NW 992,6 45 6 0,0
24.09.2020 14:00:00 12,7 5,9 11 6 - - W 992,3 50 18 0,0
24.09.2020 13:00:00 13,5 6,5 18 10 - - S 992,1 35 54 0,0
24.09.2020 12:00:00 12,5 7,5 21 11 - - S 991,9 24 30 0,0
24.09.2020 11:00:00 11,8 7,7 16 9 - - SSW 991,9 21 36 0,0
24.09.2020 10:00:00 10,8 8,7 13 7 - - S 991,8 30 42 0,0
24.09.2020 09:00:00 9,3 8,5 11 6 - - SE 991,8 50 24 0,0
24.09.2020 08:00:00 7,8 7,5 9 5 - - ESE 991,9 26 0 0,8
24.09.2020 07:00:00 7,2 6,5 13 7 - - SSE 992,7 8 0 1,6
24.09.2020 06:00:00 6,7 5,7 9 5 - - SE 993,2 50 0 0,0
24.09.2020 05:00:00 6,2 5,4 8 4 - - SSE 994,4 9 0 0,0
24.09.2020 04:00:00 5,8 4,9 9 5 - - SE 995,1 20 0 0,0
24.09.2020 03:00:00 6,5 4,7 9 5 - - S 995,8 50 0 0,0
24.09.2020 02:00:00 7,9 6,4 9 5 - - NW 996,1 45 0 0,0
24.09.2020 01:00:00 8,6 7,6 5 3 - - WSW 996,2 50 - 0,0
24.09.2020 00:00:00 9,4 9,2 9 5 - - WSW 996,5 15 0 0,0
23.09.2020 23:00:00 8,8 7,7 9 5 - - W 996,4 20 0 0,0
23.09.2020 22:00:00 10,0 8,7 8 4 - - W 996,5 45 0 0,0

tt = Température de l'air
td = dewpoint
ff = Vitesse du vent
fx = gusts
dd = Direction du vent
ppp = reduced air pressure
vv = visibility
sd = Ensoleillement
rr = Quantités de précipitations

stations d'obs. à proximité